Location: Drummondville
(45.8830°N, 72.4830°W)
Time: 12:55:50
(UTC-05:00)

N. Korean satellite - Pass Details

Date: 16 November 2017
Orbit: 460 x 515 km, 97.2° (Epoch: 17 November)

Event Time Altitude Azimuth Distance (km) Brightness Sun altitude
Rises 18:00:01 0° 176° (S) 2,479 10.2 -17.8°
Reaches altitude 10° 18:02:03 10° 181° (S) 1,614 9.3 -18.1°
Maximum altitude 18:05:27 55° 260° (W) 571 7.2 -18.7°
Drops below altitude 10° 18:08:57 10° 339° (NNW) 1,652 9.4 -19.3°
Sets 18:11:04 0° 344° (NNW) 2,545 10.3 -19.7°
